STARLINK-35456, 65867

Orbit data source: Space-Track

STARLINK-35456, 65867 is a payload satellite owned by SpaceX/Seattle (US) in LEO that was launched on Fri, 03 Oct 2025 UTC via an FALCON 9 launch vehicle from the Air Force Western Test Range (AFWTR). Payload-class satellites include a variety of spacecraft equipped with specific instruments for various scientific and technological missions. These include communications satellites like Starlink; space stations such as the ISS; scientific satellites like the Hubble; Earth observation satellites from companies like Planet Labs, Umbra, and HawkEye 360; GPS; miniature CubeSats for education and research; and military/defense satellites.

Loading next visibility...
Identifier
65867, 2025-223P
Orbit
LEO
Country
Flag of USUS
Related business
Manufacturer
SpaceX/Seattle
Mission
Operational spacecraft
Bus & Motor
STARLINK V2MO, Unknown motor
Mass
575 kg wet, ~530 kg dry
Launch date (UTC)
2025-10-03 (2 weeks ago)
Launch vehicle
FALCON 9
Launch site
Air Force Western Test Range (AFWTR)
Object type
Payload
Rocket body
Debris
Shape & HBR
Unknown
Radar Cross Section
RCS unknown

Expand to show TLE details & history
Last TLE update: 8 hours ago

TLE from 8 hours ago
0 STARLINK-35456
1 65867U 25223P   25291.14482602 -.00942507  00000-0 -85680-2 0  9990
2 65867  53.1553 240.3827 0002630 187.4403 172.6576 15.69661935  2322
Epoch: 2025-10-18T03:28Z
TLE epoch observation values (Epoch: 2025-10-18T03:28:32.968Z)
Latitude
-0.00002°
Longitude
161.36526°
Altitude
362.536 km
Speed
7.692 km/s
True Right ascension
16h 01m 31s
True Declination
0° 00' 00"
Sunlit
Object was in daylight at epoch
Visualization orbit readout
Latitude
Unknown
Longitude
Unknown
Altitude
Unknown
Speed
Unknown
Apparent Right ascension
Unknown
Apparent Declination
Unknown
Sunlit
N/A
Visualization observer readout
Local Sidereal Time
05:49:37
Azimuth
Unknown
Elevation
Unknown
Doppler factor
Unknown
Orbital elements
Apogee altitude
361.898 km
Perigee altitude
358.354 km
Semi-major axis
6,738.263 km
Eccentricity
0.00026
Inclination
53.1553°
RAAN
240.3827°
Arg. of periapsis
187.4403°
True anomaly
172.66145°
Mean anomaly
172.6576°
Eccentric anomaly
172.65953°
Mean motion
3.92393 °/min
Orbital period
91.74 mins
BSTAR
-0.008568
Loading maneuver chart data...
Computing Atmospheric mass density...
Loading historical data...
Loading historical data...
Loading historical data...
Loading historical data...
Loading historical data...
Loading historical data...
Loading historical data...

Documentation

Showing up to 5 results
|